iso_date,Year,Hour,Min,DOY,POS_DOY,Lat,Lon,BP,Ts,Ta,has_bp,has_ts,has_ta,BuoyID,Buoy_Type,Buoy_Owner,Logistics,Hemisphere
2021-11-23T16:02:03Z,2021,16,2,327.6681,327.6681,59.951,-56.937,-999.0,3.48,-999.0,no,yes,no,300234068345990,SVPGHI,AOML,UNKNOWN,North
2021-11-23T17:03:59Z,2021,17,4,327.7111,327.7111,59.956,-56.933,-999.0,3.49,-999.0,no,yes,no,300234068345990,SVPGHI,AOML,UNKNOWN,North
2021-11-23T18:04:01Z,2021,18,4,327.7528,327.7528,-90.0,-180.0,-999.0,3.5,-999.0,no,yes,no,300234068345990,SVPGHI,AOML,UNKNOWN,North
2021-11-23T19:02:03Z,2021,19,2,327.7931,327.7931,59.962,-56.908,-999.0,3.49,-999.0,no,yes,no,300234068345990,SVPGHI,AOML,UNKNOWN,North
2021-11-23T20:00:57Z,2021,20,1,327.834,327.834,59.962,-56.896,-999.0,3.49,-999.0,no,yes,no,300234068345990,SVPGHI,AOML,UNKNOWN,North
2021-11-23T21:00:00Z,2021,21,0,327.875,327.875,59.961,-56.888,-999.0,3.49,-999.0,no,yes,no,300234068345990,SVPGHI,AOML,UNKNOWN,North
2021-11-23T22:03:56Z,2021,22,4,327.9194,327.9194,-90.0,-180.0,-999.0,3.49,-999.0,no,yes,no,300234068345990,SVPGHI,AOML,UNKNOWN,North
2021-11-23T23:02:58Z,2021,23,3,327.9604,327.9604,59.955,-56.882,-999.0,3.51,-999.0,no,yes,no,300234068345990,SVPGHI,AOML,UNKNOWN,North
2021-11-24T00:00:00Z,2021,0,0,328.0,328.0,59.952,-56.887,-999.0,3.52,-999.0,no,yes,no,300234068345990,SVPGHI,AOML,UNKNOWN,North
2021-11-24T01:00:02Z,2021,1,0,328.0417,328.0417,59.947,-56.891,-999.0,3.53,-999.0,no,yes,no,300234068345990,SVPGHI,AOML,UNKNOWN,North
2021-11-24T03:04:01Z,2021,3,4,328.1278,328.1278,-90.0,-180.0,-999.0,3.53,-999.0,no,yes,no,300234068345990,SVPGHI,AOML,UNKNOWN,North
2021-11-24T04:03:56Z,2021,4,4,328.1694,328.1694,-90.0,-180.0,-999.0,3.53,-999.0,no,yes,no,300234068345990,SVPGHI,AOML,UNKNOWN,North
2021-11-24T05:03:59Z,2021,5,4,328.2111,328.2111,-90.0,-180.0,-999.0,3.51,-999.0,no,yes,no,300234068345990,SVPGHI,AOML,UNKNOWN,North
2021-11-24T06:01:00Z,2021,6,1,328.2507,328.2507,59.94,-56.933,-999.0,3.52,-999.0,no,yes,no,300234068345990,SVPGHI,AOML,UNKNOWN,North
2021-11-24T07:00:02Z,2021,7,0,328.2917,328.2917,59.94,-56.934,-999.0,3.52,-999.0,no,yes,no,300234068345990,SVPGHI,AOML,UNKNOWN,North
2021-11-24T09:02:00Z,2021,9,2,328.3764,328.3764,59.938,-56.924,-999.0,3.5,-999.0,no,yes,no,300234068345990,SVPGHI,AOML,UNKNOWN,North
2021-11-24T10:03:56Z,2021,10,4,328.4194,328.4194,59.937,-56.925,-999.0,3.49,-999.0,no,yes,no,300234068345990,SVPGHI,AOML,UNKNOWN,North
2021-11-24T12:03:01Z,2021,12,3,328.5021,328.5021,59.931,-56.927,-999.0,3.5,-999.0,no,yes,no,300234068345990,SVPGHI,AOML,UNKNOWN,North
2021-11-24T13:00:02Z,2021,13,0,328.5417,328.5417,59.927,-56.935,-999.0,3.48,-999.0,no,yes,no,300234068345990,SVPGHI,AOML,UNKNOWN,North
2021-11-24T13:59:57Z,2021,14,0,328.5833,328.5833,59.922,-56.945,-999.0,3.5,-999.0,no,yes,no,300234068345990,SVPGHI,AOML,UNKNOWN,North
2021-11-24T15:01:00Z,2021,15,1,328.6257,328.6257,59.919,-56.96,-999.0,3.5,-999.0,no,yes,no,300234068345990,SVPGHI,AOML,UNKNOWN,North
2021-11-24T17:03:59Z,2021,17,4,328.7111,328.7111,-90.0,-180.0,-999.0,3.51,-999.0,no,yes,no,300234068345990,SVPGHI,AOML,UNKNOWN,North
2021-11-24T18:00:00Z,2021,18,0,328.75,328.75,59.914,-56.994,-999.0,3.5,-999.0,no,yes,no,300234068345990,SVPGHI,AOML,UNKNOWN,North
2021-11-24T19:03:56Z,2021,19,4,328.7944,328.7944,-90.0,-180.0,-999.0,3.49,-999.0,no,yes,no,300234068345990,SVPGHI,AOML,UNKNOWN,North
2021-11-24T19:59:57Z,2021,20,0,328.8333,328.8333,59.911,-57.0,-999.0,3.49,-999.0,no,yes,no,300234068345990,SVPGHI,AOML,UNKNOWN,North
2021-11-24T21:00:00Z,2021,21,0,328.875,328.875,59.911,-57.003,-999.0,3.49,-999.0,no,yes,no,300234068345990,SVPGHI,AOML,UNKNOWN,North
2021-11-24T22:01:03Z,2021,22,1,328.9174,328.9174,59.909,-57.002,-999.0,3.47,-999.0,no,yes,no,300234068345990,SVPGHI,AOML,UNKNOWN,North
2021-11-24T23:01:58Z,2021,23,2,328.9597,328.9597,59.907,-57.002,-999.0,3.48,-999.0,no,yes,no,300234068345990,SVPGHI,AOML,UNKNOWN,North
2021-11-25T00:00:00Z,2021,0,0,329.0,329.0,59.906,-57.007,-999.0,3.5,-999.0,no,yes,no,300234068345990,SVPGHI,AOML,UNKNOWN,North
2021-11-25T01:02:03Z,2021,1,2,329.0431,329.0431,59.904,-57.011,-999.0,3.49,-999.0,no,yes,no,300234068345990,SVPGHI,AOML,UNKNOWN,North
2021-11-25T01:59:57Z,2021,2,0,329.0833,329.0833,59.901,-57.015,-999.0,3.49,-999.0,no,yes,no,300234068345990,SVPGHI,AOML,UNKNOWN,North
2021-11-25T03:03:01Z,2021,3,3,329.1271,329.1271,59.9,-57.026,-999.0,3.48,-999.0,no,yes,no,300234068345990,SVPGHI,AOML,UNKNOWN,North
2021-11-25T04:00:02Z,2021,4,0,329.1667,329.1667,59.897,-57.033,-999.0,3.48,-999.0,no,yes,no,300234068345990,SVPGHI,AOML,UNKNOWN,North
2021-11-25T04:59:57Z,2021,5,0,329.2083,329.2083,59.896,-57.04,-999.0,3.48,-999.0,no,yes,no,300234068345990,SVPGHI,AOML,UNKNOWN,North
2021-11-25T06:00:00Z,2021,6,0,329.25,329.25,59.895,-57.043,-999.0,3.48,-999.0,no,yes,no,300234068345990,SVPGHI,AOML,UNKNOWN,North
2021-11-25T07:01:03Z,2021,7,1,329.2924,329.2924,59.894,-57.04,-999.0,3.49,-999.0,no,yes,no,300234068345990,SVPGHI,AOML,UNKNOWN,North
2021-11-25T07:59:57Z,2021,8,0,329.3333,329.3333,59.892,-57.037,-999.0,3.49,-999.0,no,yes,no,300234068345990,SVPGHI,AOML,UNKNOWN,North
2021-11-25T09:00:00Z,2021,9,0,329.375,329.375,59.89,-57.039,-999.0,3.47,-999.0,no,yes,no,300234068345990,SVPGHI,AOML,UNKNOWN,North
2021-11-25T10:01:03Z,2021,10,1,329.4174,329.4174,59.889,-57.037,-999.0,3.49,-999.0,no,yes,no,300234068345990,SVPGHI,AOML,UNKNOWN,North
2021-11-25T10:59:57Z,2021,11,0,329.4583,329.4583,59.889,-57.04,-999.0,3.48,-999.0,no,yes,no,300234068345990,SVPGHI,AOML,UNKNOWN,North
2021-11-25T12:00:00Z,2021,12,0,329.5,329.5,59.89,-57.043,-999.0,3.48,-999.0,no,yes,no,300234068345990,SVPGHI,AOML,UNKNOWN,North
2021-11-25T13:00:02Z,2021,13,0,329.5417,329.5417,59.891,-57.047,-999.0,3.48,-999.0,no,yes,no,300234068345990,SVPGHI,AOML,UNKNOWN,North
2021-11-25T14:02:58Z,2021,14,3,329.5854,329.5854,59.893,-57.056,-999.0,3.49,-999.0,no,yes,no,300234068345990,SVPGHI,AOML,UNKNOWN,North
2021-11-25T15:00:00Z,2021,15,0,329.625,329.625,59.894,-57.064,-999.0,3.49,-999.0,no,yes,no,300234068345990,SVPGHI,AOML,UNKNOWN,North
2021-11-25T18:00:00Z,2021,18,0,329.75,329.75,59.893,-57.071,-999.0,3.51,-999.0,no,yes,no,300234068345990,SVPGHI,AOML,UNKNOWN,North
2021-11-25T19:00:02Z,2021,19,0,329.7917,329.7917,59.892,-57.071,-999.0,3.52,-999.0,no,yes,no,300234068345990,SVPGHI,AOML,UNKNOWN,North
2021-11-25T19:59:57Z,2021,20,0,329.8333,329.8333,59.89,-57.069,-999.0,3.52,-999.0,no,yes,no,300234068345990,SVPGHI,AOML,UNKNOWN,North
2021-11-25T21:00:00Z,2021,21,0,329.875,329.875,59.891,-57.07,-999.0,3.53,-999.0,no,yes,no,300234068345990,SVPGHI,AOML,UNKNOWN,North
2021-11-25T22:00:02Z,2021,22,0,329.9167,329.9167,59.89,-57.072,-999.0,3.52,-999.0,no,yes,no,300234068345990,SVPGHI,AOML,UNKNOWN,North
2021-11-25T22:59:57Z,2021,23,0,329.9583,329.9583,59.889,-57.073,-999.0,3.53,-999.0,no,yes,no,300234068345990,SVPGHI,AOML,UNKNOWN,North
2021-11-26T00:00:00Z,2021,0,0,330.0,330.0,59.888,-57.077,-999.0,3.54,-999.0,no,yes,no,300234068345990,SVPGHI,AOML,UNKNOWN,North
2021-11-26T01:00:02Z,2021,1,0,330.0417,330.0417,59.891,-57.086,-999.0,3.53,-999.0,no,yes,no,300234068345990,SVPGHI,AOML,UNKNOWN,North
2021-11-26T01:59:57Z,2021,2,0,330.0833,330.0833,59.892,-57.094,-999.0,3.54,-999.0,no,yes,no,300234068345990,SVPGHI,AOML,UNKNOWN,North
2021-11-26T03:00:00Z,2021,3,0,330.125,330.125,59.893,-57.098,-999.0,3.56,-999.0,no,yes,no,300234068345990,SVPGHI,AOML,UNKNOWN,North
2021-11-26T04:00:02Z,2021,4,0,330.1667,330.1667,59.892,-57.098,-999.0,3.56,-999.0,no,yes,no,300234068345990,SVPGHI,AOML,UNKNOWN,North
2021-11-26T04:59:57Z,2021,5,0,330.2083,330.2083,59.89,-57.101,-999.0,3.56,-999.0,no,yes,no,300234068345990,SVPGHI,AOML,UNKNOWN,North
2021-11-26T06:00:00Z,2021,6,0,330.25,330.25,59.889,-57.104,-999.0,3.58,-999.0,no,yes,no,300234068345990,SVPGHI,AOML,UNKNOWN,North
2021-11-26T07:00:02Z,2021,7,0,330.2917,330.2917,59.887,-57.105,-999.0,3.59,-999.0,no,yes,no,300234068345990,SVPGHI,AOML,UNKNOWN,North
2021-11-26T08:00:57Z,2021,8,1,330.334,330.334,59.888,-57.101,-999.0,3.59,-999.0,no,yes,no,300234068345990,SVPGHI,AOML,UNKNOWN,North
2021-11-26T09:00:00Z,2021,9,0,330.375,330.375,59.887,-57.101,-999.0,3.6,-999.0,no,yes,no,300234068345990,SVPGHI,AOML,UNKNOWN,North
2021-11-26T10:02:03Z,2021,10,2,330.4181,330.4181,59.882,-57.097,-999.0,3.61,-999.0,no,yes,no,300234068345990,SVPGHI,AOML,UNKNOWN,North
2021-11-26T12:01:00Z,2021,12,1,330.5007,330.5007,59.89,-57.113,-999.0,3.63,-999.0,no,yes,no,300234068345990,SVPGHI,AOML,UNKNOWN,North
2021-11-26T13:00:02Z,2021,13,0,330.5417,330.5417,59.89,-57.114,-999.0,3.64,-999.0,no,yes,no,300234068345990,SVPGHI,AOML,UNKNOWN,North
2021-11-26T13:59:57Z,2021,14,0,330.5833,330.5833,59.89,-57.119,-999.0,3.65,-999.0,no,yes,no,300234068345990,SVPGHI,AOML,UNKNOWN,North
2021-11-26T15:00:00Z,2021,15,0,330.625,330.625,59.892,-57.123,-999.0,3.65,-999.0,no,yes,no,300234068345990,SVPGHI,AOML,UNKNOWN,North
2021-11-26T16:59:57Z,2021,17,0,330.7083,330.7083,59.892,-57.128,-999.0,3.64,-999.0,no,yes,no,300234068345990,SVPGHI,AOML,UNKNOWN,North
2021-11-26T18:00:00Z,2021,18,0,330.75,330.75,59.892,-57.131,-999.0,3.62,-999.0,no,yes,no,300234068345990,SVPGHI,AOML,UNKNOWN,North
2021-11-26T19:01:03Z,2021,19,1,330.7924,330.7924,59.892,-57.134,-999.0,3.62,-999.0,no,yes,no,300234068345990,SVPGHI,AOML,UNKNOWN,North
2021-11-26T19:59:57Z,2021,20,0,330.8333,330.8333,59.893,-57.135,-999.0,3.61,-999.0,no,yes,no,300234068345990,SVPGHI,AOML,UNKNOWN,North
2021-11-26T21:00:00Z,2021,21,0,330.875,330.875,59.897,-57.133,-999.0,3.61,-999.0,no,yes,no,300234068345990,SVPGHI,AOML,UNKNOWN,North
2021-11-26T22:00:02Z,2021,22,0,330.9167,330.9167,59.898,-57.125,-999.0,3.6,-999.0,no,yes,no,300234068345990,SVPGHI,AOML,UNKNOWN,North
2021-11-26T22:59:57Z,2021,23,0,330.9583,330.9583,59.898,-57.12,-999.0,3.6,-999.0,no,yes,no,300234068345990,SVPGHI,AOML,UNKNOWN,North
2021-11-27T00:00:00Z,2021,0,0,331.0,331.0,59.897,-57.11,-999.0,3.6,-999.0,no,yes,no,300234068345990,SVPGHI,AOML,UNKNOWN,North
2021-11-27T01:00:02Z,2021,1,0,331.0417,331.0417,59.901,-57.109,-999.0,3.6,-999.0,no,yes,no,300234068345990,SVPGHI,AOML,UNKNOWN,North
2021-11-27T01:59:57Z,2021,2,0,331.0833,331.0833,59.901,-57.105,-999.0,3.6,-999.0,no,yes,no,300234068345990,SVPGHI,AOML,UNKNOWN,North
2021-11-27T03:00:00Z,2021,3,0,331.125,331.125,59.899,-57.103,-999.0,3.55,-999.0,no,yes,no,300234068345990,SVPGHI,AOML,UNKNOWN,North
2021-11-27T04:03:56Z,2021,4,4,331.1694,331.1694,59.899,-57.101,-999.0,3.58,-999.0,no,yes,no,300234068345990,SVPGHI,AOML,UNKNOWN,North
2021-11-27T04:59:57Z,2021,5,0,331.2083,331.2083,59.897,-57.101,-999.0,3.6,-999.0,no,yes,no,300234068345990,SVPGHI,AOML,UNKNOWN,North
2021-11-27T07:00:02Z,2021,7,0,331.2917,331.2917,59.898,-57.104,-999.0,3.62,-999.0,no,yes,no,300234068345990,SVPGHI,AOML,UNKNOWN,North
2021-11-27T08:03:59Z,2021,8,4,331.3361,331.3361,59.901,-57.102,-999.0,3.62,-999.0,no,yes,no,300234068345990,SVPGHI,AOML,UNKNOWN,North
2021-11-27T09:01:00Z,2021,9,1,331.3757,331.3757,59.905,-57.102,-999.0,3.62,-999.0,no,yes,no,300234068345990,SVPGHI,AOML,UNKNOWN,North
2021-11-27T10:03:56Z,2021,10,4,331.4194,331.4194,-90.0,-180.0,-999.0,3.62,-999.0,no,yes,no,300234068345990,SVPGHI,AOML,UNKNOWN,North
2021-11-27T11:03:59Z,2021,11,4,331.4611,331.4611,-90.0,-180.0,-999.0,3.61,-999.0,no,yes,no,300234068345990,SVPGHI,AOML,UNKNOWN,North
2021-11-27T12:01:00Z,2021,12,1,331.5007,331.5007,59.916,-57.079,-999.0,3.61,-999.0,no,yes,no,300234068345990,SVPGHI,AOML,UNKNOWN,North
2021-11-27T13:01:03Z,2021,13,1,331.5424,331.5424,59.921,-57.073,-999.0,3.6,-999.0,no,yes,no,300234068345990,SVPGHI,AOML,UNKNOWN,North
2021-11-27T13:59:57Z,2021,14,0,331.5833,331.5833,59.925,-57.066,-999.0,3.59,-999.0,no,yes,no,300234068345990,SVPGHI,AOML,UNKNOWN,North
2021-11-27T15:03:01Z,2021,15,3,331.6271,331.6271,59.927,-57.059,-999.0,3.59,-999.0,no,yes,no,300234068345990,SVPGHI,AOML,UNKNOWN,North
2021-11-27T16:00:02Z,2021,16,0,331.6667,331.6667,59.929,-57.06,-999.0,3.59,-999.0,no,yes,no,300234068345990,SVPGHI,AOML,UNKNOWN,North
2021-11-27T16:59:57Z,2021,17,0,331.7083,331.7083,59.932,-57.062,-999.0,3.59,-999.0,no,yes,no,300234068345990,SVPGHI,AOML,UNKNOWN,North
2021-11-27T18:03:01Z,2021,18,3,331.7521,331.7521,59.935,-57.066,-999.0,3.6,-999.0,no,yes,no,300234068345990,SVPGHI,AOML,UNKNOWN,North
2021-11-27T19:00:02Z,2021,19,0,331.7917,331.7917,59.939,-57.074,-999.0,3.62,-999.0,no,yes,no,300234068345990,SVPGHI,AOML,UNKNOWN,North
2021-11-27T19:59:57Z,2021,20,0,331.8333,331.8333,59.947,-57.08,-999.0,3.64,-999.0,no,yes,no,300234068345990,SVPGHI,AOML,UNKNOWN,North
2021-11-27T21:02:00Z,2021,21,2,331.8764,331.8764,59.954,-57.083,-999.0,3.65,-999.0,no,yes,no,300234068345990,SVPGHI,AOML,UNKNOWN,North
2021-11-27T22:03:56Z,2021,22,4,331.9194,331.9194,59.96,-57.079,-999.0,3.65,-999.0,no,yes,no,300234068345990,SVPGHI,AOML,UNKNOWN,North
2021-11-27T22:59:57Z,2021,23,0,331.9583,331.9583,59.965,-57.077,-999.0,3.64,-999.0,no,yes,no,300234068345990,SVPGHI,AOML,UNKNOWN,North
2021-11-28T00:00:00Z,2021,0,0,332.0,332.0,59.969,-57.072,-999.0,3.64,-999.0,no,yes,no,300234068345990,SVPGHI,AOML,UNKNOWN,North
2021-11-28T01:00:02Z,2021,1,0,332.0417,332.0417,59.972,-57.072,-999.0,3.64,-999.0,no,yes,no,300234068345990,SVPGHI,AOML,UNKNOWN,North
2021-11-28T01:59:57Z,2021,2,0,332.0833,332.0833,59.973,-57.074,-999.0,3.64,-999.0,no,yes,no,300234068345990,SVPGHI,AOML,UNKNOWN,North
2021-11-28T03:02:00Z,2021,3,2,332.1264,332.1264,59.971,-57.082,-999.0,3.64,-999.0,no,yes,no,300234068345990,SVPGHI,AOML,UNKNOWN,North
2021-11-28T04:00:02Z,2021,4,0,332.1667,332.1667,59.97,-57.096,-999.0,3.64,-999.0,no,yes,no,300234068345990,SVPGHI,AOML,UNKNOWN,North
2021-11-28T04:59:57Z,2021,5,0,332.2083,332.2083,59.97,-57.114,-999.0,3.64,-999.0,no,yes,no,300234068345990,SVPGHI,AOML,UNKNOWN,North
2021-11-28T06:01:00Z,2021,6,1,332.2507,332.2507,59.973,-57.135,-999.0,3.63,-999.0,no,yes,no,300234068345990,SVPGHI,AOML,UNKNOWN,North
2021-11-28T07:00:02Z,2021,7,0,332.2917,332.2917,59.976,-57.151,-999.0,3.63,-999.0,no,yes,no,300234068345990,SVPGHI,AOML,UNKNOWN,North
2021-11-28T07:59:57Z,2021,8,0,332.3333,332.3333,59.983,-57.164,-999.0,3.63,-999.0,no,yes,no,300234068345990,SVPGHI,AOML,UNKNOWN,North
2021-11-28T09:00:00Z,2021,9,0,332.375,332.375,59.988,-57.168,-999.0,3.63,-999.0,no,yes,no,300234068345990,SVPGHI,AOML,UNKNOWN,North
2021-11-28T10:00:02Z,2021,10,0,332.4167,332.4167,59.991,-57.166,-999.0,3.63,-999.0,no,yes,no,300234068345990,SVPGHI,AOML,UNKNOWN,North
2021-11-28T13:00:02Z,2021,13,0,332.5417,332.5417,59.99,-57.181,-999.0,3.63,-999.0,no,yes,no,300234068345990,SVPGHI,AOML,UNKNOWN,North
2021-11-28T13:59:57Z,2021,14,0,332.5833,332.5833,59.986,-57.191,-999.0,3.64,-999.0,no,yes,no,300234068345990,SVPGHI,AOML,UNKNOWN,North
2021-11-28T15:00:00Z,2021,15,0,332.625,332.625,59.982,-57.21,-999.0,3.64,-999.0,no,yes,no,300234068345990,SVPGHI,AOML,UNKNOWN,North
2021-11-28T16:00:02Z,2021,16,0,332.6667,332.6667,59.984,-57.228,-999.0,3.63,-999.0,no,yes,no,300234068345990,SVPGHI,AOML,UNKNOWN,North
2021-11-28T16:59:57Z,2021,17,0,332.7083,332.7083,59.99,-57.248,-999.0,3.62,-999.0,no,yes,no,300234068345990,SVPGHI,AOML,UNKNOWN,North
2021-11-28T18:00:00Z,2021,18,0,332.75,332.75,59.996,-57.264,-999.0,3.61,-999.0,no,yes,no,300234068345990,SVPGHI,AOML,UNKNOWN,North
2021-11-28T19:00:02Z,2021,19,0,332.7917,332.7917,60.004,-57.272,-999.0,3.61,-999.0,no,yes,no,300234068345990,SVPGHI,AOML,UNKNOWN,North
2021-11-28T19:59:57Z,2021,20,0,332.8333,332.8333,60.011,-57.278,-999.0,3.6,-999.0,no,yes,no,300234068345990,SVPGHI,AOML,UNKNOWN,North
2021-11-28T21:00:00Z,2021,21,0,332.875,332.875,60.016,-57.277,-999.0,3.6,-999.0,no,yes,no,300234068345990,SVPGHI,AOML,UNKNOWN,North
2021-11-28T22:59:57Z,2021,23,0,332.9583,332.9583,60.013,-57.259,-999.0,3.59,-999.0,no,yes,no,300234068345990,SVPGHI,AOML,UNKNOWN,North
2021-11-29T00:02:00Z,2021,0,2,333.0014,333.0014,60.006,-57.255,-999.0,3.59,-999.0,no,yes,no,300234068345990,SVPGHI,AOML,UNKNOWN,North
2021-11-29T01:59:57Z,2021,2,0,333.0833,333.0833,59.993,-57.281,-999.0,3.59,-999.0,no,yes,no,300234068345990,SVPGHI,AOML,UNKNOWN,North
2021-11-29T03:02:00Z,2021,3,2,333.1264,333.1264,59.997,-57.308,-999.0,3.6,-999.0,no,yes,no,300234068345990,SVPGHI,AOML,UNKNOWN,North
2021-11-29T04:01:03Z,2021,4,1,333.1674,333.1674,60.002,-57.326,-999.0,3.61,-999.0,no,yes,no,300234068345990,SVPGHI,AOML,UNKNOWN,North
2021-11-29T05:03:59Z,2021,5,4,333.2111,333.2111,60.012,-57.347,-999.0,3.61,-999.0,no,yes,no,300234068345990,SVPGHI,AOML,UNKNOWN,North
2021-11-29T06:02:00Z,2021,6,2,333.2514,333.2514,60.022,-57.36,-999.0,3.62,-999.0,no,yes,no,300234068345990,SVPGHI,AOML,UNKNOWN,North
2021-11-29T07:01:03Z,2021,7,1,333.2924,333.2924,60.036,-57.364,-999.0,3.62,-999.0,no,yes,no,300234068345990,SVPGHI,AOML,UNKNOWN,North
2021-11-29T07:59:57Z,2021,8,0,333.3333,333.3333,60.044,-57.357,-999.0,3.62,-999.0,no,yes,no,300234068345990,SVPGHI,AOML,UNKNOWN,North
2021-11-29T09:00:00Z,2021,9,0,333.375,333.375,60.05,-57.348,-999.0,3.61,-999.0,no,yes,no,300234068345990,SVPGHI,AOML,UNKNOWN,North
2021-11-29T10:00:02Z,2021,10,0,333.4167,333.4167,60.047,-57.32,-999.0,3.61,-999.0,no,yes,no,300234068345990,SVPGHI,AOML,UNKNOWN,North
2021-11-29T11:00:57Z,2021,11,1,333.459,333.459,60.049,-57.312,-999.0,3.6,-999.0,no,yes,no,300234068345990,SVPGHI,AOML,UNKNOWN,North
2021-11-29T12:04:01Z,2021,12,4,333.5028,333.5028,60.034,-57.306,-999.0,3.6,-999.0,no,yes,no,300234068345990,SVPGHI,AOML,UNKNOWN,North
2021-11-29T13:00:02Z,2021,13,0,333.5417,333.5417,60.025,-57.316,-999.0,3.59,-999.0,no,yes,no,300234068345990,SVPGHI,AOML,UNKNOWN,North
2021-11-29T13:59:57Z,2021,14,0,333.5833,333.5833,60.017,-57.336,-999.0,3.59,-999.0,no,yes,no,300234068345990,SVPGHI,AOML,UNKNOWN,North
2021-11-29T15:00:00Z,2021,15,0,333.625,333.625,60.011,-57.362,-999.0,3.58,-999.0,no,yes,no,300234068345990,SVPGHI,AOML,UNKNOWN,North
2021-11-29T16:00:02Z,2021,16,0,333.6667,333.6667,60.014,-57.39,-999.0,3.58,-999.0,no,yes,no,300234068345990,SVPGHI,AOML,UNKNOWN,North
2021-11-29T16:59:57Z,2021,17,0,333.7083,333.7083,60.023,-57.416,-999.0,3.58,-999.0,no,yes,no,300234068345990,SVPGHI,AOML,UNKNOWN,North
2021-11-29T18:00:00Z,2021,18,0,333.75,333.75,60.033,-57.43,-999.0,3.58,-999.0,no,yes,no,300234068345990,SVPGHI,AOML,UNKNOWN,North
2021-11-29T19:01:03Z,2021,19,1,333.7924,333.7924,60.043,-57.428,-999.0,3.58,-999.0,no,yes,no,300234068345990,SVPGHI,AOML,UNKNOWN,North
2021-11-29T20:02:58Z,2021,20,3,333.8354,333.8354,60.049,-57.417,-999.0,3.57,-999.0,no,yes,no,300234068345990,SVPGHI,AOML,UNKNOWN,North
2021-11-29T21:02:00Z,2021,21,2,333.8764,333.8764,60.048,-57.398,-999.0,3.56,-999.0,no,yes,no,300234068345990,SVPGHI,AOML,UNKNOWN,North
2021-11-29T22:03:56Z,2021,22,4,333.9194,333.9194,60.039,-57.384,-999.0,3.55,-999.0,no,yes,no,300234068345990,SVPGHI,AOML,UNKNOWN,North
2021-11-30T00:04:01Z,2021,0,4,334.0028,334.0028,60.012,-57.372,-999.0,3.53,-999.0,no,yes,no,300234068345990,SVPGHI,AOML,UNKNOWN,North
2021-11-30T01:03:56Z,2021,1,4,334.0444,334.0444,60.002,-57.375,-999.0,3.53,-999.0,no,yes,no,300234068345990,SVPGHI,AOML,UNKNOWN,North
2021-11-30T02:00:57Z,2021,2,1,334.084,334.084,59.991,-57.403,-999.0,3.53,-999.0,no,yes,no,300234068345990,SVPGHI,AOML,UNKNOWN,North
2021-11-30T03:04:01Z,2021,3,4,334.1278,334.1278,59.99,-57.442,-999.0,3.53,-999.0,no,yes,no,300234068345990,SVPGHI,AOML,UNKNOWN,North
2021-11-30T04:03:56Z,2021,4,4,334.1694,334.1694,59.992,-57.466,-999.0,3.52,-999.0,no,yes,no,300234068345990,SVPGHI,AOML,UNKNOWN,North
2021-11-30T05:03:59Z,2021,5,4,334.2111,334.2111,60.002,-57.489,-999.0,3.52,-999.0,no,yes,no,300234068345990,SVPGHI,AOML,UNKNOWN,North
2021-11-30T06:01:00Z,2021,6,1,334.2507,334.2507,60.012,-57.502,-999.0,3.52,-999.0,no,yes,no,300234068345990,SVPGHI,AOML,UNKNOWN,North
2021-11-30T07:00:02Z,2021,7,0,334.2917,334.2917,60.02,-57.51,-999.0,3.51,-999.0,no,yes,no,300234068345990,SVPGHI,AOML,UNKNOWN,North
2021-11-30T08:01:58Z,2021,8,2,334.3347,334.3347,60.024,-57.506,-999.0,3.42,-999.0,no,yes,no,300234068345990,SVPGHI,AOML,UNKNOWN,North
2021-11-30T09:00:00Z,2021,9,0,334.375,334.375,60.031,-57.502,-999.0,3.4,-999.0,no,yes,no,300234068345990,SVPGHI,AOML,UNKNOWN,North
2021-11-30T10:00:02Z,2021,10,0,334.4167,334.4167,60.028,-57.497,-999.0,3.4,-999.0,no,yes,no,300234068345990,SVPGHI,AOML,UNKNOWN,North
2021-11-30T12:02:00Z,2021,12,2,334.5014,334.5014,60.014,-57.502,-999.0,3.4,-999.0,no,yes,no,300234068345990,SVPGHI,AOML,UNKNOWN,North
2021-11-30T13:00:02Z,2021,13,0,334.5417,334.5417,60.006,-57.513,-999.0,3.38,-999.0,no,yes,no,300234068345990,SVPGHI,AOML,UNKNOWN,North
2021-11-30T13:59:57Z,2021,14,0,334.5833,334.5833,60.004,-57.53,-999.0,3.36,-999.0,no,yes,no,300234068345990,SVPGHI,AOML,UNKNOWN,North
2021-11-30T15:01:00Z,2021,15,1,334.6257,334.6257,60.004,-57.55,-999.0,3.37,-999.0,no,yes,no,300234068345990,SVPGHI,AOML,UNKNOWN,North
2021-11-30T16:03:04Z,2021,16,3,334.6688,334.6688,60.006,-57.575,-999.0,3.39,-999.0,no,yes,no,300234068345990,SVPGHI,AOML,UNKNOWN,North
2021-11-30T16:59:57Z,2021,17,0,334.7083,334.7083,60.013,-57.598,-999.0,3.39,-999.0,no,yes,no,300234068345990,SVPGHI,AOML,UNKNOWN,North
2021-11-30T18:00:00Z,2021,18,0,334.75,334.75,60.019,-57.623,-999.0,3.41,-999.0,no,yes,no,300234068345990,SVPGHI,AOML,UNKNOWN,North
2021-11-30T19:03:56Z,2021,19,4,334.7944,334.7944,60.028,-57.639,-999.0,3.41,-999.0,no,yes,no,300234068345990,SVPGHI,AOML,UNKNOWN,North
2021-11-30T20:02:58Z,2021,20,3,334.8354,334.8354,60.034,-57.646,-999.0,3.42,-999.0,no,yes,no,300234068345990,SVPGHI,AOML,UNKNOWN,North
2021-11-30T21:01:00Z,2021,21,1,334.8757,334.8757,60.037,-57.653,-999.0,3.47,-999.0,no,yes,no,300234068345990,SVPGHI,AOML,UNKNOWN,North
2021-11-30T22:00:02Z,2021,22,0,334.9167,334.9167,60.035,-57.658,-999.0,3.45,-999.0,no,yes,no,300234068345990,SVPGHI,AOML,UNKNOWN,North
2021-11-30T23:02:58Z,2021,23,3,334.9604,334.9604,60.027,-57.666,-999.0,3.44,-999.0,no,yes,no,300234068345990,SVPGHI,AOML,UNKNOWN,North
2021-12-01T00:04:01Z,2021,0,4,335.0028,335.0028,60.024,-57.685,-999.0,3.49,-999.0,no,yes,no,300234068345990,SVPGHI,AOML,UNKNOWN,North
2021-12-01T01:03:56Z,2021,1,4,335.0444,335.0444,-90.0,-180.0,-999.0,3.5,-999.0,no,yes,no,300234068345990,SVPGHI,AOML,UNKNOWN,North
2021-12-01T02:03:59Z,2021,2,4,335.0861,335.0861,-90.0,-180.0,-999.0,3.53,-999.0,no,yes,no,300234068345990,SVPGHI,AOML,UNKNOWN,North
2021-12-01T03:04:01Z,2021,3,4,335.1278,335.1278,-90.0,-180.0,-999.0,3.55,-999.0,no,yes,no,300234068345990,SVPGHI,AOML,UNKNOWN,North
2021-12-01T04:03:56Z,2021,4,4,335.1694,335.1694,60.005,-57.774,-999.0,3.56,-999.0,no,yes,no,300234068345990,SVPGHI,AOML,UNKNOWN,North
2021-12-01T04:59:57Z,2021,5,0,335.2083,335.2083,60.002,-57.799,-999.0,3.58,-999.0,no,yes,no,300234068345990,SVPGHI,AOML,UNKNOWN,North
2021-12-01T06:00:00Z,2021,6,0,335.25,335.25,59.999,-57.822,-999.0,3.61,-999.0,no,yes,no,300234068345990,SVPGHI,AOML,UNKNOWN,North
2021-12-01T07:00:02Z,2021,7,0,335.2917,335.2917,59.997,-57.842,-999.0,3.63,-999.0,no,yes,no,300234068345990,SVPGHI,AOML,UNKNOWN,North
2021-12-01T09:00:00Z,2021,9,0,335.375,335.375,59.988,-57.881,-999.0,3.64,-999.0,no,yes,no,300234068345990,SVPGHI,AOML,UNKNOWN,North
2021-12-01T10:00:02Z,2021,10,0,335.4167,335.4167,59.981,-57.897,-999.0,3.64,-999.0,no,yes,no,300234068345990,SVPGHI,AOML,UNKNOWN,North
2021-12-01T11:03:59Z,2021,11,4,335.4611,335.4611,-90.0,-180.0,-999.0,3.65,-999.0,no,yes,no,300234068345990,SVPGHI,AOML,UNKNOWN,North
2021-12-01T12:04:01Z,2021,12,4,335.5028,335.5028,-90.0,-180.0,-999.0,3.65,-999.0,no,yes,no,300234068345990,SVPGHI,AOML,UNKNOWN,North
2021-12-01T13:03:56Z,2021,13,4,335.5444,335.5444,-90.0,-180.0,-999.0,3.65,-999.0,no,yes,no,300234068345990,SVPGHI,AOML,UNKNOWN,North
2021-12-01T14:03:59Z,2021,14,4,335.5861,335.5861,-90.0,-180.0,-999.0,3.66,-999.0,no,yes,no,300234068345990,SVPGHI,AOML,UNKNOWN,North
2021-12-01T15:04:01Z,2021,15,4,335.6278,335.6278,-90.0,-180.0,-999.0,3.66,-999.0,no,yes,no,300234068345990,SVPGHI,AOML,UNKNOWN,North
2021-12-01T16:01:03Z,2021,16,1,335.6674,335.6674,59.924,-57.947,-999.0,3.66,-999.0,no,yes,no,300234068345990,SVPGHI,AOML,UNKNOWN,North
2021-12-01T16:59:57Z,2021,17,0,335.7083,335.7083,59.912,-57.954,-999.0,3.66,-999.0,no,yes,no,300234068345990,SVPGHI,AOML,UNKNOWN,North
2021-12-01T18:02:00Z,2021,18,2,335.7514,335.7514,59.897,-57.956,-999.0,3.67,-999.0,no,yes,no,300234068345990,SVPGHI,AOML,UNKNOWN,North